Simultaneous Nadir Overpasses (SNOs) Predictions

Prediction of SNOs between GOES-17 and METOP-C Satellite Orbit:

Table of predicted SNOs for the next 14.0 days since TLE Epoch: 7/4/2020
Index Date Time (GOES-17) GOES-17 Lat,Lon METOP-C Lat,Lon Distance(km) Time Diff (sec)
1 07/04/2020 06:25:00 -0.02,-137.18 0.85,-133.16 457.27 80
2 07/05/2020 18:41:14 0.02,-137.18 0.11,-137.74 62.98 80
3 07/08/2020 06:39:34 -0.01,-137.15 -0.04,-137.34 20.46 80
4 07/10/2020 18:40:26 -0.01,-137.14 -0.05,-136.90 26.71 80
5 07/12/2020 06:56:46 0.01,-137.12 -0.99,-141.49 499.31 80
6 07/13/2020 06:38:46 0.01,-137.10 0.13,-136.50 68.58 80
7 07/14/2020 18:54:58 -0.00,-137.09 0.90,-141.06 452.99 80
8 07/15/2020 18:36:59 0.01,-137.07 -0.22,-136.07 114.67 80
9 07/17/2020 06:55:58 -0.02,-137.04 -0.81,-140.66 412.34 80
